When you browse on this site, cookies collect data to enhance your experience and personalize the content and advertising you see.
Visit our Privacy Policy to learn more. By continuing to use the site, you agree to this use of cookies and data.
  • In Hungary
  • List of Countries
  • For 7 days
  • Water Temperature
  • Satellite Maps
  • Weather Map
  • News
  • Weather Widgets
  • user-avatar
    Login

    Hourly Weather Tamarac

    Today, 16 December, Sunday

    Time Temperature Precipitation Wind Pressure Humidity
    00:00 +21°C° 0 mm 3 mps 764 mmHg 88%
    01:00 +21°C° 0 mm 3 mps 764 mmHg 90%
    02:00 +20°C° 0 mm 3 mps 764 mmHg 89%
    03:00 +20°C° 0 mm 3 mps 764 mmHg 89%
    04:00 +20°C° 0 mm 3 mps 764 mmHg 88%
    05:00 +20°C° 0 mm 3 mps 764 mmHg 86%
    06:00 +21°C° 0 mm 3 mps 764 mmHg 84%
    07:00 +21°C° 0 mm 3 mps 764 mmHg 82%
    08:00 +22°C° 0 mm 3 mps 765 mmHg 76%
    09:00 +22°C° 0 mm 3 mps 765 mmHg 70%
    10:00 +23°C° 0 mm 4 mps 765 mmHg 64%
    11:00 +25°C° 0 mm 3 mps 765 mmHg 60%
    12:00 +26°C° 0 mm 3 mps 764 mmHg 56%
    13:00 +27°C° 0 mm 3 mps 764 mmHg 52%
    14:00 +27°C° 0 mm 3 mps 764 mmHg 52%
    15:00 +27°C° 0 mm 3 mps 763 mmHg 53%
    16:00 +26°C° 0 mm 3 mps 763 mmHg 54%
    17:00 +25°C° 0 mm 3 mps 763 mmHg 58%
    18:00 +24°C° 0 mm 3 mps 764 mmHg 61%
    19:00 +22°C° 0 mm 3 mps 764 mmHg 65%
    20:00 +21°C° 0 mm 3 mps 764 mmHg 67%
    21:00 +20°C° 0 mm 3 mps 764 mmHg 69%
    22:00 +20°C° 0 mm 3 mps 764 mmHg 72%
    23:00 +19°C° 0 mm 4 mps 764 mmHg 74%

    Tomorrow, 17 December, Monday

    Time Temperature Precipitation Wind Pressure Humidity
    00:00 +19°C° 0 mm 4 mps 764 mmHg 77%
    01:00 +18°C° 0 mm 4 mps 764 mmHg 79%
    02:00 +17°C° 0 mm 4 mps 764 mmHg 81%
    03:00 +17°C° 0 mm 4 mps 764 mmHg 82%
    04:00 +15°C° 0 mm 4 mps 763 mmHg 83%
    05:00 +15°C° 0 mm 4 mps 764 mmHg 82%
    06:00 +15°C° 0 mm 4 mps 764 mmHg 82%
    07:00 +14°C° 0 mm 4 mps 764 mmHg 81%
    08:00 +17°C° 0 mm 4 mps 764 mmHg 74%
    09:00 +18°C° 0 mm 4 mps 765 mmHg 67%
    10:00 +19°C° 0 mm 4 mps 765 mmHg 60%
    11:00 +21°C° 0 mm 3 mps 765 mmHg 55%
    12:00 +22°C° 0 mm 3 mps 764 mmHg 51%
    13:00 +24°C° 0 mm 3 mps 764 mmHg 46%
    14:00 +24°C° 0 mm 3 mps 764 mmHg 46%
    15:00 +24°C° 0 mm 3 mps 763 mmHg 45%
    16:00 +24°C° 0 mm 3 mps 763 mmHg 45%
    17:00 +21°C° 0 mm 3 mps 763 mmHg 50%
    18:00 +20°C° 0 mm 3 mps 764 mmHg 56%
    19:00 +18°C° 0 mm 3 mps 764 mmHg 61%
    20:00 +18°C° 0 mm 3 mps 764 mmHg 62%
    21:00 +17°C° 0 mm 2 mps 764 mmHg 63%
    22:00 +17°C° 0 mm 2 mps 764 mmHg 65%
    23:00 +17°C° 0 mm 2 mps 764 mmHg 66%

    Day after tomorrow, 18 December, Tuesday

    Time Temperature Precipitation Wind Pressure Humidity
    00:00 +16°C° 0 mm 2 mps 764 mmHg 67%
    01:00 +16°C° 0 mm 2 mps 764 mmHg 68%
    02:00 +16°C° 0 mm 2 mps 763 mmHg 70%
    03:00 +16°C° 0 mm 2 mps 763 mmHg 71%
    04:00 +15°C° 0 mm 2 mps 763 mmHg 73%
    05:00 +15°C° 0 mm 2 mps 763 mmHg 74%
    06:00 +15°C° 0 mm 2 mps 764 mmHg 75%
    07:00 +14°C° 0 mm 3 mps 764 mmHg 76%
    08:00 +17°C° 0 mm 2 mps 764 mmHg 72%
    09:00 +19°C° 0 mm 2 mps 764 mmHg 68%
    10:00 +21°C° 0 mm 2 mps 765 mmHg 63%
    11:00 +23°C° 0 mm 2 mps 764 mmHg 58%
    12:00 +24°C° 0 mm 2 mps 764 mmHg 53%
    13:00 +26°C° 0 mm 2 mps 764 mmHg 48%
    14:00 +26°C° 0 mm 2 mps 763 mmHg 48%
    15:00 +26°C° 0 mm 2 mps 763 mmHg 48%
    16:00 +26°C° 0 mm 3 mps 762 mmHg 48%
    17:00 +24°C° 0 mm 3 mps 763 mmHg 54%
    18:00 +22°C° 0 mm 3 mps 763 mmHg 61%
    19:00 +20°C° 0 mm 3 mps 763 mmHg 67%
    20:00 +20°C° 0 mm 3 mps 764 mmHg 69%
    21:00 +20°C° 0 mm 3 mps 764 mmHg 71%
    22:00 +19°C° 0 mm 3 mps 764 mmHg 72%
    23:00 +19°C° 0 mm 3 mps 764 mmHg 73%

    19 December, Wednesday

    Time Temperature Precipitation Wind Pressure Humidity
    00:00 +19°C° 0 mm 3 mps 763 mmHg 74%
    01:00 +18°C° 0 mm 2 mps 763 mmHg 75%
    02:00 +18°C° 0 mm 2 mps 763 mmHg 76%
    03:00 +18°C° 0 mm 2 mps 763 mmHg 76%
    04:00 +18°C° 0 mm 2 mps 762 mmHg 77%
    05:00 +18°C° 0 mm 2 mps 763 mmHg 77%
    06:00 +18°C° 0 mm 2 mps 763 mmHg 78%
    07:00 +18°C° 0 mm 2 mps 763 mmHg 78%
    08:00 +20°C° 0 mm 3 mps 763 mmHg 73%
    09:00 +22°C° 0 mm 3 mps 764 mmHg 67%
    10:00 +25°C° 0 mm 3 mps 764 mmHg 62%
    11:00 +24°C° 0.4 mm 3 mps 763 mmHg 68%
    12:00 +22°C° 0.4 mm 3 mps 763 mmHg 74%
    13:00 +22°C° 0.4 mm 3 mps 762 mmHg 81%
    14:00 +22°C° 0.5 mm 3 mps 761 mmHg 81%
    15:00 +22°C° 0.5 mm 3 mps 761 mmHg 82%
    16:00 +22°C° 0.5 mm 3 mps 760 mmHg 83%
    17:00 +22°C° 0.7 mm 3 mps 761 mmHg 85%
    18:00 +22°C° 0.7 mm 3 mps 761 mmHg 87%
    19:00 +22°C° 0.7 mm 3 mps 761 mmHg 89%
    20:00 +21°C° 0.9 mm 3 mps 761 mmHg 90%
    21:00 +21°C° 0.9 mm 3 mps 761 mmHg 92%
    22:00 +21°C° 0.9 mm 3 mps 761 mmHg 93%
    23:00 +21°C° 0.8 mm 4 mps 761 mmHg 92%

    20 December, Thursday

    Time Temperature Precipitation Wind Pressure Humidity
    00:00 +21°C° 0.8 mm 4 mps 760 mmHg 91%
    01:00 +22°C° 0.8 mm 4 mps 760 mmHg 90%
    02:00 +22°C° 0.8 mm 4 mps 759 mmHg 91%
    03:00 +22°C° 0.8 mm 4 mps 759 mmHg 92%
    04:00 +22°C° 0.8 mm 4 mps 758 mmHg 92%
    05:00 +22°C° 1.5 mm 5 mps 758 mmHg 92%
    06:00 +22°C° 1.5 mm 5 mps 759 mmHg 91%
    07:00 +22°C° 1.5 mm 6 mps 759 mmHg 91%
    08:00 +22°C° 1.5 mm 6 mps 759 mmHg 90%
    09:00 +22°C° 1.5 mm 6 mps 759 mmHg 90%
    10:00 +22°C° 1.5 mm 5 mps 759 mmHg 89%
    11:00 +22°C° 3 mm 5 mps 759 mmHg 88%
    12:00 +21°C° 3 mm 5 mps 758 mmHg 87%
    13:00 +21°C° 3 mm 5 mps 757 mmHg 86%
    14:00 +21°C° 6.8 mm 5 mps 757 mmHg 87%
    15:00 +20°C° 6.8 mm 4 mps 757 mmHg 88%
    16:00 +20°C° 6.8 mm 4 mps 757 mmHg 89%
    17:00 +20°C° 1.4 mm 5 mps 757 mmHg 90%
    18:00 +21°C° 1.4 mm 5 mps 757 mmHg 91%
    19:00 +21°C° 1.4 mm 5 mps 758 mmHg 91%
    20:00 +21°C° 0.1 mm 5 mps 758 mmHg 91%
    21:00 +21°C° 0.1 mm 5 mps 758 mmHg 90%
    22:00 +21°C° 0.1 mm 5 mps 757 mmHg 90%
    23:00 +20°C° 0.1 mm 5 mps 757 mmHg 90%

    21 December, Friday

    Time Temperature Precipitation Wind Pressure Humidity
    00:00 +20°C° 0.1 mm 5 mps 757 mmHg 90%
    01:00 +20°C° 0.1 mm 5 mps 757 mmHg 90%
    02:00 +19°C° 0 mm 5 mps 757 mmHg 90%
    03:00 +19°C° 0 mm 5 mps 757 mmHg 89%
    04:00 +19°C° 0 mm 6 mps 757 mmHg 89%
    05:00 +17°C° 0 mm 6 mps 757 mmHg 87%
    06:00 +17°C° 0 mm 6 mps 758 mmHg 85%
    07:00 +17°C° 0 mm 7 mps 758 mmHg 83%
    08:00 +18°C° 0 mm 7 mps 759 mmHg 75%
    09:00 +20°C° 0 mm 8 mps 760 mmHg 67%
    10:00 +21°C° 0 mm 9 mps 760 mmHg 59%
    11:00 +21°C° 0 mm 9 mps 760 mmHg 54%
    12:00 +22°C° 0 mm 9 mps 760 mmHg 50%
    13:00 +22°C° 0 mm 9 mps 760 mmHg 45%
    14:00 +22°C° 0 mm 9 mps 760 mmHg 46%
    15:00 +21°C° 0 mm 9 mps 760 mmHg 48%
    16:00 +21°C° 0 mm 9 mps 760 mmHg 49%
    17:00 +18°C° 0 mm 9 mps 761 mmHg 52%
    18:00 +17°C° 0 mm 8 mps 761 mmHg 56%
    19:00 +16°C° 0 mm 8 mps 762 mmHg 59%
    20:00 +15°C° 0 mm 7 mps 763 mmHg 60%
    21:00 +15°C° 0 mm 7 mps 763 mmHg 62%
    22:00 +15°C° 0 mm 7 mps 764 mmHg 63%
    23:00 +14°C° 0 mm 7 mps 764 mmHg 64%
    Show more